Weather Roundup
Issued by NWS Chicago, IL

Home | Current Version | Previous Version | Graphics & Text | Print | Product List | Glossary On
Versions: 1 2 3 4 5 6 7 8 9 10 11 12 13 14 15 16 17 18 19 20 21 22 23 24 25 26 27 28 29 30 31 32 33 34 35 36 37 38 39 40 41 42 43 44 45 46 47 48 49 50
000
NZUS59 KLOT 010908
HRRLOT

CHICAGO AREA WEATHER ROUNDUP
NATIONAL WEATHER SERVICE CHICAGO/ROMEOVILLE IL
400 AM CDT SAT AUG 01 2015

NOTE: "FAIR" INDICATES FEW OR NO CLOUDS BELOW 12,000 FEET WITH NO
SIGNIFICANT WEATHER AND/OR OBSTRUCTIONS TO VISIBILITY.

* THESE STATIONS ARE NOT UNDER NWS QUALITY CONTROL. THEY ALSO MAY NOT
  REPORT WEATHER SUCH AS PRECIPITATION OR FOG.

ILZ005-006-012>014-019>023-011000-
NORTHEAST ILLINOIS

CITY           SKY/WX    TMP DP  RH WIND       PRES   REMARKS
OHARE          CLEAR     66  53  63 W7        29.98S
MIDWAY         CLEAR     68  52  56 W6        29.98S
AURORA         CLEAR     57  52  83 CALM      30.01S
LANSING*       CLEAR     63  53  71 W5        29.99S
JOLIET*        CLEAR     59  56  89 CALM      30.00S
WAUKEGAN       CLEAR     62  53  72 SW3       29.97S
DUPAGE AIRPORT CLEAR     62  53  72 W5        29.99S
WHEELING       CLEAR     66  52  60 VRB3      29.99F
KANKAKEE*      CLEAR     61  58  91 W5        30.02R
MORRIS*        CLEAR     60  56  87 W5        30.00S
LEWIS AIRPORT* CLEAR     60  53  77 NW6       30.00S
NORTHERLY IS     N/A     71  51  49 W7          N/A
$$

WIZ051-052-058>065-066-070>072-011000-
SOUTHEAST WISCONSIN

CITY           SKY/WX    TMP DP  RH WIND       PRES   REMARKS
MILWAUKEE      CLEAR     68  50  52 W8        29.95F
KENOSHA*       CLEAR     57  51  80 W5        29.97S
RACINE*        CLEAR     63  51  65 W7        29.98S
BURLINGTON     CLEAR     56  50  81 CALM      29.98S
WAUKESHA       CLEAR     59  50  72 W6        29.98S
WEST BEND      CLEAR     63  50  63 W7        29.96S
$$

INZ001>003-010>013-019-020-011000-
NORTHWEST INDIANA

CITY           SKY/WX    TMP DP  RH WIND       PRES   REMARKS
GARY*          CLEAR     66  55  68 W5        29.99R
MICHIGAN CITY* NOT AVBL
RENSSELAER*    NOT AVBL
VALPARAISO     CLEAR     62  53  72 W6        29.99S
$$

LMZ740>746-011000-
SOUTHERN LAKE MICHIGAN

STATION/POSITION TIME  SKY/WX   TEMP WIND        PRES    VSBY
                                AIR  DIR/SP/G
                 (UTC)          (F)  (DEG/KT/KT) (MB)    (MI)
HARRISON CRIB    0800            72  300/ 13/ 16   N/A
BURNHAM HARBOR   0900            71  260/  9/ 11   N/A
CALUMET HARBOR   0800            70  270/  2/  5   N/A
BURNS HARBOR     0800            74  280/  8/ 10 1015.6S
MICHIGAN CITY    0800            73  280/ 14/ 15   N/A
$$

ABBREVIATIONS USED IN REMARKS
   TC - TEMPERATURE IN CELSIUS
  WCI - WIND CHILL INDEX
   HX - HEAT INDEX
  VSB - VISIBILITY
$$


USA.gov is the U.S. government's official web portal to all federal, state and local government web resources and services.